QPF
0.00 0.01 0.01 0.03 0.09 0.10 0.07 0.05 0.04 0.03 0.01 0.01 0.00 0.01 0.03 0.05 0.07 0.11 0.13 0.08 0.04 0.06 0.05 0.05 0.06 0.08 0.09 0.07 0.05 0.08 0.09 0.08 0.10 0.11 0.11 0.10 0.13 0.16 0.14 0.14 0.15 0.15 0.15 0.13 0.10 0.07 0.06 0.07 0.12
0.01 0.01 0.02 0.05 0.12 0.09 0.07 0.05 0.04 0.01 0.00 0.00 0.00 0.01 0.01 0.01 0.04 0.12 0.14 0.10 0.07 0.07 0.06 0.05 0.05 0.08 0.10 0.07 0.06 0.07 0.08 0.08 0.09 0.11 0.12 0.11 0.15 0.18 0.16 0.14 0.13 0.14 0.11 0.09 0.08 0.06 0.06 0.06 0.09
0.00 0.01 0.04 0.09 0.08 0.06 0.06 0.04 0.01 0.00 0.00 0.00 0.01 0.01 0.01 0.03 0.04 0.09 0.12 0.11 0.09 0.07 0.06 0.06 0.03 0.05 0.08 0.06 0.04 0.04 0.05 0.07 0.11 0.12 0.12 0.12 0.13 0.15 0.13 0.12 0.11 0.09 0.08 0.08 0.06 0.05 0.06 0.07 0.07
0.01 0.02 0.05 0.07 0.06 0.04 0.03 0.02 0.00 0.00 0.00 0.00 0.01 0.02 0.02 0.03 0.03 0.06 0.07 0.09 0.08 0.08 0.06 0.05 0.03 0.04 0.05 0.05 0.03 0.04 0.05 0.07 0.09 0.10 0.14 0.15 0.15 0.12 0.11 0.11 0.10 0.09 0.07 0.07 0.07 0.06 0.07 0.08 0.07
0.02 0.05 0.09 0.07 0.04 0.04 0.02 0.01 0.00 0.00 0.00 0.00 0.00 0.02 0.03 0.03 0.02 0.03 0.04 0.05 0.08 0.10 0.07 0.06 0.08 0.07 0.05 0.04 0.05 0.06 0.07 0.07 0.09 0.14 0.16 0.15 0.13 0.09 0.09 0.11 0.10 0.08 0.07 0.08 0.07 0.05 0.08 0.10 0.08
0.06 0.07 0.09 0.06 0.03 0.02 0.01 0.00 0.00 0.00 0.01 0.01 0.01 0.02 0.03 0.03 0.03 0.02 0.02 0.05 0.08 0.08 0.06 0.10 0.11 0.09 0.05 0.05 0.05 0.06 0.08 0.10 0.14 0.16 0.17 0.13 0.08 0.07 0.07 0.09 0.09 0.08 0.07 0.06 0.05 0.06 0.13 0.12 0.08
0.06 0.07 0.06 0.03 0.03 0.02 0.01 0.00 0.00 0.02 0.02 0.01 0.00 0.01 0.03 0.04 0.02 0.01 0.03 0.06 0.06 0.07 0.06 0.09 0.10 0.09 0.06 0.05 0.06 0.06 0.06 0.07 0.09 0.09 0.10 0.10 0.10 0.10 0.08 0.07 0.07 0.05 0.04 0.05 0.06 0.07 0.13 0.17 0.10
0.01 0.03 0.03 0.03 0.03 0.02 0.00 0.00 0.00 0.01 0.01 0.01 0.01 0.01 0.03 0.03 0.02 0.01 0.03 0.05 0.04 0.06 0.09 0.09 0.10 0.13 0.11 0.08 0.09 0.07 0.05 0.05 0.06 0.06 0.07 0.09 0.09 0.10 0.08 0.06 0.05 0.04 0.04 0.04 0.05 0.05 0.09 0.13 0.12
0.01 0.03 0.03 0.02 0.02 0.01 0.00 0.00 0.00 0.00 0.00 0.01 0.01 0.00 0.01 0.02 0.01 0.01 0.02 0.04 0.05 0.05 0.06 0.07 0.07 0.10 0.10 0.08 0.07 0.06 0.05 0.04 0.05 0.05 0.06 0.10 0.10 0.09 0.08 0.06 0.05 0.04 0.03 0.03 0.03 0.04 0.06 0.10 0.12
0.02 0.04 0.02 0.01 0.00 0.00 0.00 0.00 0.00 0.01 0.01 0.01 0.01 0.01 0.01 0.01 0.01 0.01 0.02 0.04 0.05 0.04 0.03 0.04 0.03 0.05 0.07 0.08 0.08 0.10 0.09 0.06 0.06 0.06 0.06 0.08 0.08 0.06 0.04 0.05 0.04 0.04 0.03 0.03 0.03 0.04 0.07 0.10 0.12
0.03 0.03 0.01 0.00 0.00 0.00 0.00 0.00 0.00 0.01 0.01 0.02 0.03 0.02 0.02 0.01 0.01 0.01 0.01 0.03 0.04 0.03 0.02 0.02 0.03 0.04 0.05 0.08 0.07 0.08 0.09 0.08 0.05 0.05 0.05 0.07 0.07 0.05 0.04 0.05 0.05 0.05 0.05 0.06 0.06 0.07 0.08 0.09 0.09
0.01 0.00 0.00 0.00 0.00 0.00 0.00 0.00 0.00 0.01 0.01 0.01 0.03 0.02 0.02 0.02 0.01 0.01 0.02 0.02 0.03 0.03 0.02 0.02 0.04 0.05 0.06 0.06 0.06 0.06 0.05 0.05 0.05 0.05 0.06 0.06 0.07 0.06 0.07 0.06 0.05 0.05 0.06 0.06 0.06 0.08 0.06 0.06 0.07
0.01 0.00 0.00 0.00 0.00 0.00 0.00 0.00 0.00 0.01 0.01 0.01 0.02 0.02 0.02 0.02 0.02 0.02 0.02 0.02 0.02 0.03 0.04 0.02 0.03 0.05 0.06 0.07 0.06 0.05 0.05 0.04 0.04 0.04 0.07 0.07 0.07 0.07 0.07 0.07 0.05 0.05 0.04 0.06 0.05 0.05 0.05 0.04 0.05
0.01 0.00 0.00 0.00 0.01 0.00 0.00 0.00 0.01 0.01 0.01 0.01 0.01 0.03 0.03 0.02 0.02 0.03 0.03 0.01 0.01 0.02 0.03 0.04 0.04 0.04 0.04 0.05 0.05 0.04 0.04 0.04 0.03 0.04 0.05 0.08 0.10 0.09 0.08 0.08 0.07 0.06 0.05 0.05 0.05 0.05 0.06 0.06 0.05
0.01 0.01 0.01 0.01 0.01 0.00 0.01 0.02 0.01 0.01 0.01 0.01 0.02 0.03 0.03 0.03 0.03 0.03 0.03 0.01 0.01 0.01 0.02 0.03 0.04 0.05 0.04 0.04 0.04 0.03 0.03 0.03 0.03 0.03 0.06 0.09 0.10 0.09 0.08 0.08 0.07 0.06 0.04 0.05 0.05 0.07 0.06 0.07 0.07
0.03 0.04 0.02 0.01 0.00 0.00 0.03 0.06 0.02 0.01 0.01 0.00 0.01 0.01 0.02 0.03 0.02 0.02 0.02 0.02 0.02 0.01 0.01 0.01 0.02 0.04 0.05 0.05 0.05 0.04 0.03 0.03 0.03 0.03 0.07 0.12 0.11 0.09 0.09 0.08 0.07 0.06 0.05 0.06 0.07 0.07 0.06 0.08 0.08
0.05 0.04 0.02 0.01 0.00 0.00 0.02 0.04 0.01 0.01 0.01 0.01 0.01 0.01 0.02 0.01 0.01 0.01 0.02 0.01 0.02 0.02 0.02 0.02 0.02 0.04 0.06 0.06 0.07 0.06 0.06 0.04 0.04 0.04 0.09 0.14 0.12 0.09 0.08 0.08 0.08 0.07 0.06 0.06 0.06 0.08 0.07 0.09 0.09
0.03 0.02 0.01 0.01 0.00 0.00 0.02 0.02 0.00 0.00 0.01 0.02 0.02 0.01 0.01 0.01 0.01 0.01 0.01 0.00 0.01 0.02 0.03 0.03 0.03 0.05 0.05 0.06 0.08 0.08 0.06 0.05 0.03 0.04 0.07 0.10 0.09 0.07 0.07 0.07 0.09 0.09 0.08 0.08 0.09 0.10 0.10 0.09 0.10
0.01 0.01 0.01 0.01 0.01 0.01 0.01 0.01 0.01 0.00 0.01 0.01 0.01 0.00 0.00 0.01 0.01 0.01 0.01 0.00 0.00 0.01 0.03 0.05 0.04 0.05 0.05 0.07 0.07 0.07 0.06 0.04 0.03 0.02 0.03 0.05 0.05 0.06 0.07 0.07 0.08 0.09 0.09 0.09 0.09 0.11 0.11 0.11 0.11
0.01 0.01 0.01 0.01 0.00 0.00 0.01 0.01 0.01 0.00 0.00 0.00 0.00 0.00 0.00 0.00 0.01 0.01 0.01 0.01 0.01 0.01 0.02 0.03 0.03 0.04 0.05 0.07 0.08 0.08 0.06 0.04 0.03 0.03 0.03 0.02 0.03 0.04 0.05 0.06 0.05 0.06 0.09 0.11 0.12 0.13 0.13 0.10 0.08
0.01 0.01 0.01 0.01 0.01 0.00 0.01 0.03 0.02 0.01 0.00 0.00 0.00 0.00 0.00 0.00 0.03 0.05 0.01 0.00 0.01 0.01 0.01 0.01 0.02 0.04 0.05 0.07 0.08 0.07 0.06 0.05 0.03 0.04 0.05 0.04 0.04 0.05 0.05 0.05 0.04 0.06 0.08 0.12 0.14 0.13 0.14 0.10 0.07
0.01 0.00 0.00 0.01 0.01 0.02 0.01 0.04 0.02 0.01 0.01 0.01 0.01 0.03 0.01 0.00 0.00 0.00 0.00 0.00 0.00 0.01 0.01 0.01 0.02 0.03 0.03 0.05 0.07 0.07 0.06 0.05 0.04 0.04 0.06 0.06 0.05 0.04 0.04 0.04 0.05 0.06 0.07 0.11 0.11 0.10 0.11 0.10 0.07
0.00 0.00 0.00 0.00 0.01 0.01 0.01 0.02 0.02 0.00 0.01 0.01 0.02 0.04 0.01 0.00 0.00 0.00 0.00 0.01 0.01 0.01 0.01 0.01 0.01 0.02 0.02 0.03 0.06 0.08 0.07 0.06 0.06 0.06 0.07 0.07 0.07 0.05 0.04 0.04 0.05 0.05 0.06 0.08 0.10 0.12 0.10 0.08 0.06
0.00 0.00 0.01 0.01 0.01 0.02 0.01 0.01 0.02 0.01 0.01 0.01 0.01 0.01 0.00 0.01 0.00 0.00 0.00 0.00 0.01 0.01 0.02 0.01 0.00 0.01 0.02 0.02 0.04 0.08 0.09 0.07 0.07 0.08 0.08 0.08 0.08 0.06 0.04 0.05 0.05 0.04 0.05 0.06 0.07 0.09 0.09 0.09 0.07
0.01 0.04 0.06 0.07 0.05 0.03 0.01 0.01 0.01 0.01 0.00 0.00 0.00 0.00 0.01 0.02 0.01 0.00 0.00 0.00 0.00 0.01 0.01 0.01 0.01 0.01 0.01 0.02 0.02 0.04 0.06 0.07 0.06 0.07 0.07 0.08 0.07 0.04 0.03 0.04 0.05 0.05 0.05 0.06 0.08 0.09 0.09 0.09 0.08
0.00 0.02 0.03 0.04 0.04 0.02 0.02 0.02 0.01 0.01 0.01 0.00 0.00 0.00 0.00 0.00 0.01 0.01 0.01 0.00 0.01 0.00 0.01 0.01 0.01 0.01 0.02 0.02 0.02 0.03 0.03 0.04 0.06 0.08 0.08 0.07 0.05 0.04 0.03 0.03 0.04 0.04 0.04 0.05 0.07 0.10 0.11 0.11 0.09
0.00 0.00 0.00 0.01 0.02 0.03 0.04 0.02 0.02 0.01 0.01 0.00 0.00 0.00 0.00 0.00 0.04 0.06 0.05 0.02 0.02 0.00 0.00 0.01 0.02 0.02 0.02 0.01 0.02 0.02 0.02 0.02 0.03 0.05 0.05 0.05 0.05 0.04 0.04 0.04 0.04 0.04 0.04 0.04 0.05 0.07 0.08 0.10 0.09
0.00 0.00 0.00 0.00 0.01 0.02 0.03 0.03 0.02 0.00 0.00 0.00 0.00 0.01 0.01 0.01 0.03 0.05 0.05 0.01 0.00 0.00 0.01 0.01 0.02 0.03 0.02 0.02 0.01 0.01 0.01 0.01 0.01 0.02 0.02 0.02 0.02 0.02 0.03 0.03 0.03 0.03 0.04 0.03 0.04 0.05 0.06 0.07 0.07
0.00 0.00 0.00 0.00 0.01 0.02 0.04 0.03 0.01 0.01 0.00 0.00 0.00 0.00 0.01 0.01 0.01 0.02 0.02 0.01 0.01 0.01 0.01 0.02 0.01 0.02 0.02 0.01 0.00 0.01 0.01 0.01 0.01 0.01 0.01 0.01 0.01 0.01 0.02 0.02 0.02 0.03 0.03 0.04 0.04 0.04 0.05 0.06 0.06
0.00 0.00 0.00 0.00 0.00 0.00 0.01 0.02 0.00 0.00 0.00 0.00 0.00 0.00 0.00 0.00 0.00 0.00 0.00 0.00 0.01 0.01 0.01 0.01 0.00 0.01 0.02 0.01 0.00 0.01 0.01 0.01 0.01 0.01 0.01 0.01 0.01 0.01 0.01 0.01 0.01 0.02 0.03 0.04 0.04 0.04 0.06 0.08 0.08
MSLP
1006.54 1007.42 1008.31 1009.03 1009.43 1009.44 1009.10 1008.50 1007.80 1007.16 1006.70 1006.47 1006.43 1006.52 1006.62 1006.64 1006.53 1006.28 1005.95 1005.60 1005.29 1005.06 1004.88 1004.72 1004.52 1004.23 1003.85 1003.41 1002.91 1002.41 1001.87 1001.23 1000.35 999.08 997.33 995.05 992.35 989.46 986.73 984.55 983.30 983.18 984.27 986.41 989.30 992.55 995.74 998.53 1000.71
1006.98 1008.01 1008.97 1009.66 1009.95 1009.80 1009.26 1008.45 1007.56 1006.77 1006.21 1005.92 1005.87 1005.96 1006.08 1006.13 1006.05 1005.83 1005.55 1005.25 1005.01 1004.87 1004.79 1004.74 1004.65 1004.46 1004.15 1003.75 1003.28 1002.79 1002.28 1001.71 1000.99 999.99 998.62 996.82 994.67 992.34 990.11 988.34 987.30 987.20 988.09 989.84 992.22 994.89 997.49 999.74 1001.51
1007.51 1008.64 1009.61 1010.24 1010.41 1010.10 1009.38 1008.41 1007.39 1006.51 1005.88 1005.56 1005.49 1005.57 1005.69 1005.73 1005.63 1005.40 1005.11 1004.83 1004.63 1004.56 1004.58 1004.65 1004.69 1004.61 1004.41 1004.08 1003.66 1003.20 1002.75 1002.27 1001.72 1000.99 1000.00 998.70 997.13 995.40 993.73 992.39 991.61 991.54 992.24 993.61 995.45 997.49 999.47 1001.17 1002.50
1008.01 1009.16 1010.09 1010.63 1010.67 1010.22 1009.38 1008.32 1007.24 1006.33 1005.71 1005.40 1005.35 1005.43 1005.52 1005.51 1005.37 1005.08 1004.74 1004.43 1004.24 1004.20 1004.30 1004.47 1004.62 1004.68 1004.59 1004.35 1003.99 1003.59 1003.19 1002.79 1002.39 1001.91 1001.28 1000.44 999.41 998.25 997.11 996.19 995.67 995.66 996.19 997.21 998.56 1000.03 1001.44 1002.64 1003.56
1008.35 1009.45 1010.29 1010.70 1010.62 1010.07 1009.18 1008.11 1007.07 1006.23 1005.68 1005.43 1005.42 1005.51 1005.58 1005.52 1005.30 1004.93 1004.52 1004.15 1003.93 1003.89 1004.02 1004.25 1004.50 1004.66 1004.67 1004.51 1004.23 1003.88 1003.53 1003.21 1002.93 1002.65 1002.31 1001.85 1001.27 1000.60 999.93 999.38 999.09 999.14 999.55 1000.29 1001.23 1002.23 1003.17 1003.96 1004.57
1008.46 1009.45 1010.14 1010.42 1010.24 1009.65 1008.77 1007.77 1006.85 1006.14 1005.73 1005.60 1005.66 1005.78 1005.84 1005.73 1005.44 1005.00 1004.50 1004.06 1003.78 1003.70 1003.83 1004.08 1004.37 1004.59 1004.66 1004.57 1004.35 1004.05 1003.74 1003.48 1003.29 1003.16 1003.03 1002.86 1002.63 1002.33 1002.01 1001.76 1001.66 1001.77 1002.09 1002.61 1003.25 1003.92 1004.53 1005.03 1005.43
1008.34 1009.16 1009.69 1009.83 1009.58 1008.99 1008.18 1007.32 1006.57 1006.06 1005.83 1005.83 1005.99 1006.15 1006.21 1006.08 1005.74 1005.24 1004.68 1004.19 1003.85 1003.73 1003.81 1004.04 1004.31 1004.54 1004.63 1004.57 1004.39 1004.12 1003.85 1003.63 1003.51 1003.47 1003.49 1003.51 1003.51 1003.46 1003.39 1003.34 1003.37 1003.51 1003.79 1004.17 1004.61 1005.05 1005.45 1005.79 1006.08
1008.06 1008.70 1009.07 1009.09 1008.79 1008.23 1007.53 1006.85 1006.30 1005.99 1005.93 1006.08 1006.32 1006.53 1006.61 1006.48 1006.13 1005.61 1005.03 1004.51 1004.14 1003.97 1004.00 1004.17 1004.39 1004.57 1004.65 1004.58 1004.40 1004.15 1003.91 1003.73 1003.65 1003.68 1003.79 1003.92 1004.05 1004.15 1004.23 1004.30 1004.40 1004.56 1004.79 1005.08 1005.40 1005.72 1006.02 1006.27 1006.53
1007.74 1008.21 1008.43 1008.36 1008.04 1007.53 1006.97 1006.45 1006.10 1005.97 1006.06 1006.31 1006.61 1006.86 1006.95 1006.83 1006.50 1006.02 1005.48 1004.98 1004.62 1004.43 1004.41 1004.51 1004.65 1004.75 1004.76 1004.66 1004.46 1004.22 1003.99 1003.85 1003.81 1003.88 1004.04 1004.23 1004.43 1004.60 1004.73 1004.85 1004.98 1005.13 1005.33 1005.57 1005.82 1006.08 1006.33 1006.57 1006.82
1007.51 1007.85 1007.95 1007.82 1007.49 1007.06 1006.61 1006.24 1006.04 1006.04 1006.21 1006.51 1006.83 1007.07 1007.17 1007.08 1006.80 1006.39 1005.93 1005.51 1005.19 1005.02 1004.97 1005.01 1005.07 1005.09 1005.01 1004.85 1004.63 1004.38 1004.18 1004.06 1004.06 1004.16 1004.34 1004.56 1004.77 1004.96 1005.11 1005.23 1005.34 1005.47 1005.63 1005.83 1006.05 1006.29 1006.52 1006.76 1007.03
1007.47 1007.70 1007.73 1007.56 1007.25 1006.88 1006.53 1006.27 1006.16 1006.22 1006.41 1006.69 1006.97 1007.18 1007.25 1007.18 1006.96 1006.64 1006.30 1005.99 1005.77 1005.65 1005.60 1005.60 1005.59 1005.53 1005.39 1005.17 1004.92 1004.67 1004.48 1004.39 1004.41 1004.54 1004.73 1004.96 1005.17 1005.34 1005.47 1005.56 1005.65 1005.75 1005.88 1006.05 1006.25 1006.47 1006.70 1006.94 1007.21
1007.64 1007.82 1007.80 1007.63 1007.34 1007.02 1006.73 1006.54 1006.47 1006.52 1006.67 1006.87 1007.05 1007.18 1007.21 1007.13 1006.97 1006.75 1006.53 1006.36 1006.25 1006.20 1006.19 1006.18 1006.13 1006.02 1005.83 1005.57 1005.30 1005.06 1004.89 1004.83 1004.87 1005.01 1005.21 1005.42 1005.61 1005.76 1005.86 1005.93 1005.98 1006.06 1006.16 1006.31 1006.49 1006.71 1006.93 1007.17 1007.43
1007.99 1008.15 1008.12 1007.94 1007.69 1007.41 1007.17 1006.99 1006.91 1006.91 1006.97 1007.05 1007.11 1007.12 1007.07 1006.97 1006.84 1006.71 1006.60 1006.55 1006.55 1006.58 1006.63 1006.64 1006.59 1006.46 1006.25 1006.00 1005.74 1005.51 1005.37 1005.32 1005.38 1005.52 1005.71 1005.89 1006.06 1006.18 1006.25 1006.30 1006.34 1006.40 1006.50 1006.64 1006.81 1007.02 1007.24 1007.47 1007.71
1008.44 1008.59 1008.56 1008.41 1008.18 1007.94 1007.72 1007.55 1007.43 1007.35 1007.30 1007.24 1007.16 1007.05 1006.92 1006.77 1006.65 1006.55 1006.52 1006.55 1006.64 1006.75 1006.85 1006.91 1006.88 1006.78 1006.60 1006.38 1006.15 1005.96 1005.84 1005.81 1005.87 1005.99 1006.14 1006.30 1006.43 1006.52 1006.58 1006.62 1006.67 1006.74 1006.85 1007.00 1007.18 1007.39 1007.60 1007.82 1008.05
1008.87 1009.03 1009.02 1008.89 1008.71 1008.50 1008.29 1008.11 1007.95 1007.81 1007.65 1007.47 1007.27 1007.05 1006.82 1006.62 1006.47 1006.38 1006.38 1006.45 1006.58 1006.73 1006.87 1006.97 1006.99 1006.94 1006.82 1006.67 1006.50 1006.36 1006.28 1006.25 1006.29 1006.37 1006.48 1006.58 1006.67 1006.74 1006.79 1006.85 1006.91 1007.02 1007.16 1007.34 1007.55 1007.76 1007.98 1008.19 1008.41
1009.19 1009.37 1009.41 1009.33 1009.19 1009.03 1008.85 1008.67 1008.48 1008.27 1008.03 1007.77 1007.47 1007.16 1006.86 1006.60 1006.41 1006.29 1006.27 1006.33 1006.44 1006.59 1006.75 1006.87 1006.95 1006.96 1006.93 1006.86 1006.78 1006.70 1006.65 1006.62 1006.62 1006.65 1006.69 1006.73 1006.77 1006.81 1006.86 1006.94 1007.05 1007.21 1007.40 1007.62 1007.86 1008.10 1008.33 1008.55 1008.76
1009.39 1009.61 1009.71 1009.71 1009.65 1009.54 1009.40 1009.23 1009.03 1008.78 1008.49 1008.16 1007.80 1007.43 1007.08 1006.77 1006.53 1006.37 1006.29 1006.29 1006.36 1006.47 1006.59 1006.73 1006.84 1006.92 1006.98 1007.00 1007.01 1006.99 1006.96 1006.93 1006.89 1006.84 1006.80 1006.77 1006.75 1006.77 1006.82 1006.93 1007.09 1007.30 1007.55 1007.82 1008.10 1008.37 1008.62 1008.85 1009.06
1009.48 1009.79 1009.99 1010.10 1010.13 1010.10 1010.01 1009.87 1009.65 1009.38 1009.05 1008.68 1008.29 1007.89 1007.51 1007.18 1006.90 1006.69 1006.54 1006.46 1006.43 1006.47 1006.54 1006.65 1006.78 1006.91 1007.04 1007.15 1007.23 1007.27 1007.26 1007.21 1007.12 1007.00 1006.87 1006.76 1006.69 1006.67 1006.73 1006.87 1007.07 1007.34 1007.64 1007.95 1008.27 1008.56 1008.82 1009.06 1009.29
1009.53 1009.97 1010.31 1010.57 1010.73 1010.81 1010.78 1010.65 1010.43 1010.12 1009.76 1009.35 1008.93 1008.53 1008.15 1007.80 1007.50 1007.24 1007.03 1006.87 1006.75 1006.69 1006.69 1006.75 1006.87 1007.02 1007.20 1007.37 1007.50 1007.58 1007.58 1007.50 1007.35 1007.16 1006.95 1006.77 1006.64 1006.60 1006.65 1006.81 1007.05 1007.35 1007.69 1008.03 1008.35 1008.65 1008.93 1009.17 1009.41
1009.61 1010.22 1010.76 1011.21 1011.53 1011.72 1011.76 1011.65 1011.40 1011.04 1010.62 1010.17 1009.72 1009.30 1008.93 1008.59 1008.29 1008.01 1007.76 1007.53 1007.33 1007.18 1007.09 1007.09 1007.16 1007.31 1007.49 1007.69 1007.85 1007.94 1007.94 1007.83 1007.63 1007.37 1007.09 1006.83 1006.65 1006.57 1006.61 1006.78 1007.03 1007.35 1007.70 1008.05 1008.37 1008.66 1008.92 1009.15 1009.39
1009.77 1010.59 1011.36 1012.02 1012.53 1012.85 1012.96 1012.85 1012.55 1012.12 1011.61 1011.08 1010.59 1010.14 1009.77 1009.45 1009.17 1008.90 1008.64 1008.37 1008.12 1007.89 1007.73 1007.65 1007.67 1007.77 1007.94 1008.13 1008.29 1008.37 1008.34 1008.19 1007.95 1007.62 1007.28 1006.97 1006.74 1006.63 1006.65 1006.79 1007.03 1007.34 1007.67 1007.99 1008.29 1008.55 1008.78 1009.00 1009.22
1010.00 1011.04 1012.05 1012.95 1013.66 1014.11 1014.28 1014.17 1013.81 1013.27 1012.65 1012.02 1011.45 1010.96 1010.58 1010.28 1010.04 1009.81 1009.57 1009.31 1009.03 1008.76 1008.53 1008.39 1008.34 1008.39 1008.50 1008.65 1008.77 1008.82 1008.76 1008.58 1008.28 1007.91 1007.52 1007.16 1006.89 1006.73 1006.72 1006.83 1007.03 1007.30 1007.58 1007.85 1008.10 1008.31 1008.50 1008.69 1008.90
1010.24 1011.49 1012.73 1013.86 1014.76 1015.35 1015.57 1015.45 1015.03 1014.39 1013.64 1012.89 1012.23 1011.69 1011.29 1011.01 1010.81 1010.63 1010.44 1010.21 1009.94 1009.66 1009.40 1009.19 1009.08 1009.06 1009.11 1009.19 1009.27 1009.27 1009.17 1008.95 1008.62 1008.21 1007.78 1007.38 1007.07 1006.87 1006.80 1006.85 1007.00 1007.20 1007.41 1007.61 1007.78 1007.93 1008.07 1008.23 1008.42
1010.41 1011.82 1013.26 1014.58 1015.65 1016.36 1016.65 1016.53 1016.07 1015.33 1014.47 1013.62 1012.86 1012.26 1011.84 1011.58 1011.42 1011.30 1011.17 1010.99 1010.76 1010.49 1010.21 1009.97 1009.80 1009.71 1009.70 1009.72 1009.73 1009.69 1009.56 1009.31 1008.95 1008.52 1008.06 1007.63 1007.26 1007.01 1006.88 1006.86 1006.92 1007.03 1007.16 1007.27 1007.36 1007.45 1007.53 1007.65 1007.82
1010.45 1011.95 1013.51 1014.98 1016.18 1017.00 1017.37 1017.28 1016.79 1016.01 1015.08 1014.15 1013.33 1012.68 1012.25 1011.99 1011.87 1011.81 1011.74 1011.62 1011.43 1011.18 1010.91 1010.64 1010.43 1010.29 1010.22 1010.19 1010.15 1010.07 1009.91 1009.65 1009.27 1008.83 1008.35 1007.88 1007.48 1007.17 1006.95 1006.85 1006.82 1006.83 1006.85 1006.87 1006.88 1006.89 1006.92 1006.99 1007.13
1010.34 1011.85 1013.45 1014.99 1016.28 1017.19 1017.64 1017.61 1017.15 1016.38 1015.44 1014.49 1013.65 1012.99 1012.54 1012.30 1012.21 1012.19 1012.17 1012.09 1011.94 1011.72 1011.45 1011.18 1010.95 1010.77 1010.66 1010.59 1010.52 1010.43 1010.25 1009.98 1009.61 1009.16 1008.67 1008.18 1007.73 1007.35 1007.07 1006.87 1006.73 1006.64 1006.56 1006.48 1006.41 1006.34 1006.31 1006.33 1006.42
1010.14 1011.56 1013.13 1014.67 1015.99 1016.96 1017.48 1017.53 1017.17 1016.47 1015.59 1014.69 1013.87 1013.23 1012.81 1012.58 1012.51 1012.51 1012.51 1012.46 1012.33 1012.13 1011.87 1011.60 1011.35 1011.17 1011.03 1010.94 1010.87 1010.76 1010.59 1010.33 1009.98 1009.54 1009.04 1008.53 1008.05 1007.61 1007.25 1006.95 1006.72 1006.53 1006.35 1006.18 1006.02 1005.88 1005.77 1005.72 1005.75
1009.95 1011.22 1012.68 1014.14 1015.44 1016.44 1017.03 1017.19 1016.93 1016.37 1015.61 1014.82 1014.09 1013.51 1013.12 1012.91 1012.84 1012.84 1012.84 1012.79 1012.67 1012.47 1012.21 1011.95 1011.69 1011.50 1011.36 1011.27 1011.20 1011.10 1010.95 1010.71 1010.38 1009.95 1009.47 1008.95 1008.43 1007.95 1007.52 1007.15 1006.83 1006.55 1006.28 1006.03 1005.79 1005.57 1005.37 1005.24 1005.18
1009.92 1011.01 1012.30 1013.63 1014.85 1015.83 1016.47 1016.72 1016.61 1016.21 1015.62 1014.98 1014.37 1013.88 1013.55 1013.35 1013.28 1013.25 1013.23 1013.15 1013.01 1012.79 1012.53 1012.25 1012.01 1011.81 1011.67 1011.59 1011.52 1011.44 1011.31 1011.09 1010.79 1010.38 1009.91 1009.38 1008.85 1008.34 1007.87 1007.44 1007.06 1006.71 1006.38 1006.05 1005.74 1005.43 1005.15 1004.91 1004.73
1010.19 1011.08 1012.17 1013.34 1014.45 1015.37 1016.01 1016.34 1016.37 1016.13 1015.72 1015.24 1014.77 1014.39 1014.11 1013.93 1013.84 1013.78 1013.70 1013.57 1013.39 1013.14 1012.85 1012.57 1012.31 1012.11 1011.97 1011.88 1011.81 1011.74 1011.62 1011.42 1011.13 1010.75 1010.28 1009.77 1009.24 1008.71 1008.22 1007.77 1007.35 1006.96 1006.58 1006.21 1005.83 1005.45 1005.07 1004.71 1004.40
Thickness
5830 5832 5831 5824 5806 5797 5798 5811 5821 5822 5824 5833 5835 5829 5816 5807 5796 5784 5811 5823 5819 5814 5809 5804 5801 5799 5797 5796 5794 5793 5792 5791 5790 5789 5788 5787 5787 5786 5786 5786 5786 5785 5784 5782 5780 5779 5778 5776 5775
5838 5838 5830 5817 5797 5787 5793 5815 5817 5822 5832 5838 5835 5828 5817 5809 5814 5811 5815 5821 5820 5815 5809 5805 5801 5799 5797 5795 5794 5792 5791 5790 5789 5788 5787 5786 5786 5785 5785 5785 5784 5784 5783 5782 5781 5779 5778 5777 5775
5840 5841 5822 5811 5803 5796 5798 5817 5823 5832 5840 5837 5828 5825 5814 5807 5814 5814 5819 5824 5820 5815 5809 5803 5801 5799 5797 5794 5793 5791 5790 5789 5788 5787 5786 5785 5785 5784 5784 5784 5784 5783 5783 5782 5781 5780 5778 5777 5775
5840 5834 5822 5814 5805 5815 5819 5826 5833 5832 5834 5836 5828 5815 5814 5822 5821 5822 5825 5825 5819 5814 5809 5803 5801 5798 5796 5794 5792 5791 5790 5788 5788 5787 5786 5785 5784 5784 5784 5783 5783 5783 5782 5781 5780 5779 5778 5777 5776
5843 5825 5808 5809 5813 5824 5833 5838 5838 5828 5827 5830 5826 5809 5806 5822 5829 5828 5826 5824 5819 5814 5810 5804 5800 5798 5796 5794 5792 5791 5790 5788 5787 5786 5785 5784 5784 5784 5784 5783 5783 5782 5781 5781 5780 5779 5778 5777 5776
5831 5822 5803 5802 5813 5826 5834 5842 5839 5830 5828 5830 5823 5810 5807 5823 5825 5825 5827 5824 5821 5815 5811 5805 5800 5798 5796 5794 5793 5791 5790 5788 5787 5786 5785 5785 5784 5784 5784 5783 5783 5782 5781 5781 5780 5779 5778 5777 5776
5825 5819 5809 5815 5816 5820 5832 5844 5836 5830 5826 5829 5831 5812 5809 5819 5826 5828 5826 5824 5821 5816 5812 5806 5802 5798 5796 5794 5793 5791 5790 5789 5787 5787 5786 5785 5785 5784 5784 5783 5782 5782 5781 5780 5779 5779 5778 5777 5776
5849 5830 5820 5823 5818 5818 5838 5842 5841 5835 5828 5840 5837 5814 5806 5819 5829 5828 5825 5822 5819 5816 5812 5809 5806 5801 5798 5795 5793 5791 5790 5789 5788 5787 5786 5786 5785 5784 5784 5783 5782 5782 5781 5780 5780 5779 5778 5776 5775
5860 5827 5815 5825 5824 5826 5841 5838 5840 5846 5837 5835 5835 5828 5825 5829 5829 5824 5819 5816 5813 5812 5811 5809 5807 5804 5801 5798 5795 5792 5790 5789 5787 5787 5786 5786 5786 5785 5784 5784 5783 5782 5781 5781 5780 5779 5778 5777 5776
5848 5820 5825 5841 5843 5838 5841 5839 5840 5835 5826 5823 5825 5828 5832 5830 5825 5818 5813 5809 5808 5807 5809 5809 5806 5803 5802 5800 5797 5794 5792 5789 5788 5787 5787 5787 5787 5787 5786 5784 5783 5782 5782 5781 5780 5779 5778 5777 5776
5849 5834 5844 5849 5853 5850 5842 5841 5847 5832 5819 5821 5819 5822 5826 5825 5821 5816 5813 5811 5809 5809 5808 5808 5806 5803 5801 5800 5798 5796 5793 5791 5790 5788 5788 5788 5788 5787 5786 5785 5783 5782 5782 5781 5781 5779 5779 5778 5777
5852 5852 5854 5852 5856 5851 5845 5843 5839 5834 5829 5834 5832 5830 5827 5823 5819 5816 5813 5811 5810 5808 5807 5807 5805 5802 5800 5799 5798 5796 5794 5792 5791 5789 5789 5788 5788 5787 5786 5785 5784 5784 5783 5782 5781 5780 5780 5780 5778
5850 5851 5857 5858 5856 5853 5849 5841 5836 5832 5838 5838 5834 5830 5825 5823 5821 5820 5818 5814 5811 5808 5807 5806 5805 5801 5800 5798 5797 5797 5794 5792 5791 5789 5788 5788 5788 5786 5786 5785 5784 5784 5783 5782 5781 5781 5780 5778 5777
5855 5856 5856 5857 5854 5853 5844 5839 5835 5830 5839 5834 5829 5826 5826 5824 5822 5818 5815 5812 5810 5808 5807 5807 5805 5803 5801 5799 5797 5797 5795 5793 5792 5790 5788 5788 5787 5786 5785 5784 5783 5783 5782 5781 5780 5780 5779 5777 5776
5859 5846 5847 5852 5853 5851 5845 5824 5828 5836 5838 5830 5826 5824 5824 5824 5822 5818 5816 5814 5812 5809 5808 5807 5807 5804 5802 5800 5799 5798 5796 5795 5792 5790 5789 5788 5787 5786 5785 5783 5783 5782 5782 5781 5780 5779 5778 5777 5776
5845 5837 5829 5846 5855 5854 5836 5807 5829 5841 5836 5827 5826 5824 5822 5821 5822 5821 5820 5817 5814 5811 5808 5807 5809 5805 5803 5800 5799 5798 5797 5795 5793 5791 5789 5788 5786 5786 5785 5783 5783 5782 5781 5780 5778 5776 5775 5774 5772
5832 5827 5827 5839 5857 5854 5838 5818 5832 5844 5838 5829 5826 5825 5822 5820 5821 5822 5822 5820 5816 5812 5809 5807 5807 5805 5804 5802 5800 5798 5796 5795 5793 5792 5789 5788 5786 5785 5784 5783 5782 5782 5781 5779 5778 5776 5774 5771 5770
5824 5829 5831 5834 5851 5851 5837 5829 5835 5843 5839 5832 5829 5827 5824 5820 5820 5823 5823 5822 5818 5814 5811 5808 5807 5805 5804 5802 5800 5798 5796 5795 5794 5792 5789 5787 5786 5785 5784 5782 5782 5782 5780 5778 5776 5774 5773 5771 5770
5846 5837 5832 5839 5855 5848 5836 5831 5836 5842 5839 5833 5830 5828 5825 5823 5826 5826 5824 5822 5819 5814 5811 5808 5805 5804 5802 5799 5796 5794 5793 5794 5793 5792 5790 5788 5787 5785 5784 5782 5781 5780 5778 5776 5775 5773 5770 5769 5770
5849 5835 5833 5842 5856 5848 5836 5832 5840 5843 5840 5838 5833 5830 5827 5824 5822 5822 5823 5822 5818 5814 5812 5809 5806 5804 5802 5800 5798 5797 5796 5795 5794 5793 5791 5789 5787 5785 5785 5782 5780 5779 5776 5774 5773 5770 5767 5767 5769
5843 5840 5837 5835 5848 5851 5837 5821 5829 5840 5844 5842 5840 5837 5833 5827 5822 5820 5821 5821 5820 5816 5813 5810 5807 5805 5803 5802 5801 5799 5796 5794 5792 5790 5789 5789 5787 5785 5783 5781 5779 5778 5776 5773 5772 5770 5766 5763 5766
5835 5854 5851 5844 5834 5828 5833 5802 5821 5833 5833 5835 5836 5835 5833 5831 5828 5825 5823 5821 5820 5818 5816 5811 5808 5805 5803 5802 5799 5795 5790 5787 5788 5789 5789 5788 5787 5785 5783 5782 5779 5777 5775 5773 5771 5771 5768 5764 5761
5851 5862 5855 5847 5836 5828 5832 5817 5819 5835 5826 5830 5836 5837 5837 5835 5832 5828 5826 5823 5822 5821 5817 5812 5807 5804 5802 5800 5798 5794 5792 5790 5790 5789 5788 5786 5786 5785 5783 5782 5780 5777 5775 5773 5771 5769 5768 5766 5762
5866 5856 5850 5845 5833 5808 5827 5819 5810 5829 5831 5834 5839 5840 5839 5837 5834 5831 5829 5826 5823 5822 5818 5813 5806 5802 5801 5799 5796 5793 5790 5788 5786 5785 5784 5784 5784 5783 5782 5781 5779 5777 5775 5773 5770 5769 5767 5765 5763
5856 5832 5808 5801 5802 5808 5837 5822 5816 5839 5848 5845 5841 5841 5840 5838 5834 5829 5826 5823 5820 5819 5817 5812 5805 5801 5799 5797 5794 5792 5789 5787 5784 5783 5783 5781 5780 5779 5779 5779 5777 5775 5774 5773 5771 5768 5766 5765 5763
5849 5838 5807 5791 5795 5811 5829 5814 5826 5850 5855 5855 5850 5845 5842 5837 5833 5829 5826 5823 5820 5818 5815 5810 5804 5800 5798 5795 5793 5791 5789 5786 5784 5783 5782 5780 5778 5778 5778 5777 5775 5774 5773 5772 5769 5767 5765 5764 5762
5845 5843 5854 5831 5821 5802 5805 5817 5830 5850 5847 5847 5844 5840 5836 5834 5831 5828 5826 5823 5819 5816 5813 5809 5803 5798 5796 5794 5791 5788 5787 5784 5782 5781 5780 5778 5777 5777 5775 5774 5772 5771 5769 5768 5767 5764 5763 5761 5760
5862 5856 5844 5826 5798 5786 5795 5803 5810 5827 5832 5837 5837 5834 5833 5833 5830 5827 5825 5824 5821 5817 5813 5809 5803 5798 5795 5792 5790 5787 5784 5783 5780 5778 5776 5774 5773 5773 5772 5770 5768 5767 5766 5765 5763 5762 5761 5759 5758
5847 5846 5839 5830 5824 5797 5781 5796 5834 5831 5836 5837 5836 5836 5833 5831 5829 5827 5824 5824 5821 5817 5811 5806 5801 5796 5793 5790 5787 5784 5782 5780 5778 5775 5773 5772 5771 5769 5768 5766 5764 5763 5762 5761 5760 5758 5757 5755 5754
5853 5848 5841 5817 5811 5817 5799 5798 5844 5841 5844 5841 5838 5836 5835 5832 5830 5827 5824 5821 5817 5813 5809 5804 5800 5795 5792 5789 5786 5781 5779 5776 5774 5772 5770 5769 5767 5765 5764 5762 5760 5759 5758 5757 5755 5754 5754 5751 5749